Weather Roundup
Issued by NWS Corpus Christi, TX

Current Version | Previous Version | Text Only | Print | Product List | Glossary On
Versions: 1 2 3 4 5 6 7 8 9 10 11 12 13 14 15 16 17 18 19 20 21 22 23 24 25 26 27 28 29 30 31 32 33 34 35 36 37 38 39 40 41 42 43 44 45 46 47 48 49 50
000
ASUS44 KCRP 291310
HRRCRP

SOUTH TEXAS REGIONAL WEATHER ROUNDUP
NATIONAL WEATHER SERVICE CORPUS CHRISTI TX
700 AM CST THU JAN 29 2015


TXZ229>244-291400-
...CORPUS CHRISTI AREA OBSERVATIONS...

CITY           SKY/WX    TMP DP  RH WIND       PRES   REMARKS
CORPUS CHRISTI MOCLDY    54  53  97 SE7       30.15R
NAS CORPUS CHR MOCLDY    57  57 100 S7        30.16R
ROCKPORT       CLEAR     59  58  96 SE6       30.15R
KINGSVILLE NAS FOG       51  51 100 SE5       30.15R VSB 3/4
ALICE          FOG       55  54  96 CALM      30.15R VSB 1/4
FALFURRIAS     CLOUDY    58  57  96 CALM      30.14R VSB 1/4
$$

...VICTORIA AREA OBSERVATIONS...

CITY           SKY/WX    TMP DP  RH WIND       PRES   REMARKS
VICTORIA       FOG       52  51  97 CALM      30.17R VSB 1/4
BEEVILLE       FOG       53  53 100 CALM      30.15R VSB<1/4
PLEASANTON     FOG       58  57  97 SE5       30.17R VSB 1
SAN ANTONIO    FOG       59  58  96 SW6       30.17R VSB 3/4
$$

...LAREDO AREA OBSERVATIONS...

CITY           SKY/WX    TMP DP  RH WIND       PRES   REMARKS
LAREDO         CLEAR     55  54  94 SE7       30.15R
COTULLA        FOG       56  56 100 E7        30.14R VSB 1/4
DEL RIO        PTCLDY    51  44  77 CALM      30.14R
MCALLEN        FOG       59  59 100 SE6       30.14R VSB 1/4
HEBBRONVILLE   LGT RAIN  59  59  99 S9        30.15R
$$

...OTHER TEXAS OBSERVATIONS...

CITY           SKY/WX    TMP DP  RH WIND       PRES   REMARKS
BROWNSVILLE    CLEAR     59  58  96 SE5       30.15R
HOUSTON        FOG       57  57 100 CALM      30.20R VSB 1/4
COL. STATION   CLOUDY    58  56  93 SW5       30.18R
AUSTIN         FOG       54  54 100 CALM      30.17R VSB 1/4
WACO           CLEAR     44  43  96 S5        30.17R
FORT WORTH     PTCLDY    54  40  59 N15       30.14R
WICHITA FALLS  CLEAR     46  35  65 N12       30.22R
LUBBOCK        MOCLDY    44  34  67 N15       30.30R
EL PASO        MOCLDY    48  37  65 N12       30.21R
$$

...MARINE OBSERVATIONS...

STATION/POSITION TIME  SKY/WX   TEMP    WIND        PRES    VSBY  WAVE   SWELL
                                AIR SEA DIR/SP/G                  HT/PER HT/PER
                 (UTC)          (F)     (DEG/KT/KT) (MB)    (MI)  (FT/S) (FT/S)
PORT ARANSAS     1300            62 60  140/  8/  9 1021.5R
BUOY 90 E PORT A 1300            68 68  180/  8/ 10 1022.4R         2/ 4   2/ 4
BUOY 45 SE BAFFI 1300            68 70  160/ 10/ 14 1021.1R         2/ 5
BUOY 200 E PT IS 1300            70 72  130/ 10/ 12 1022.2R         1/ 3
BUOY 15 E GALVES 1300            58 57  160/  4/  4 1022.2R         1/ 4   2/ 4
$$



USA.gov is the U.S. government's official web portal to all federal, state and local government web resources and services.